User: anonymous   Login
Location: Unspecified
(0.0000°N, 0.0000°E)
Time: 04:31:58
(UTC+00:00)
Language:

GSAT 7 - Orbit

View from above orbital plane
View from above orbital plane
View from above satellite
View from above satellite

Ground track
Ground track

The orbit data is extracted from the following two-line orbital elements,

1 39234U 13044B   14325.83424443 -.00000068  00000-0  00000+0 0  3910
2 39234 000.0581 097.5796 0009692 169.3782 168.1474 01.00272370  4537
Epoch (UTC): 21 November 2014 20:01:18
Eccentricity: 0.0009692
inclination: 0.0581°
perigee height: 35745 km
apogee height: 35827 km
right ascension of ascending node: 97.5796°
argument of perigee: 169.3782°
revolutions per day: 1.00272370
mean anomaly at epoch: 168.1474°
orbit number at epoch: 453

The dashed part of the orbit path shows where the satellite is in the earth's shadow,  

DLR